SKYNET 1

Satellite information

Favourite Embed

Satellite Type and Status

PAYLOADIN ORBIT

Key statistics

Satellite SKYNET 1 at a glance.

Uptime

20438

Days in orbit

Revolutions

≈ 1.0

Per day

Orbit

GEO

Geostationary Orbit

Inclination

0.1

Latest

Satellite identification and parameters

Extended collection of information and parameters for SKYNET 1.

Object identification

Identified? True

Debris? False

Object name: SKYNET 1

International designator: 1969-101A

Object number (NORAD): 4250

Object ID (CCSDS): 4250

Country: UNITED KINGDOM (UK)

Current information (Y/N): Y

RCS size: LARGE

Orbital parameters

Period: 1436.052 minutes

Inclination: 0.1497 deg

SMA: 42163.854 km

Apoapsis: 35897.44 km

Periapsis: 35673.997 km

RAAN: 285.1269 deg

Eccentricy: 0.00264969

Argument of periapsis: 312.4765 deg

Mean anomaly: 274.3184 deg

Mean motion: 1.00274919 rev/day

Mean motion (dot): -0.00000086 rev/day2

B* drag term: 0.0 1/REarth

Two-line elements (TLE)

Creation date: Nov. 6, 2025, 3:23 a.m.

Reference frame: TEME

Reference center: EARTH

Epoch: Nov. 5, 2025, 2:02 p.m. UTC

TLE line 0: 0 SKYNET 1

TLE line 1: 1 04250U 69101A 25309.58538567 -.00000086 00000-0 00000-0 0 9999

TLE line 2: 2 04250 0.1497 285.1269 0026497 312.4765 274.3184 1.00274919132270

Live tracking on map

Real-time ground track for satellite SKYNET 1.

In-orbit conjunctions

There are no conjunctions computed for SKYNET 1, at the moment. Check back to stay up to date, as we update our databases every day.

Go to all conjunctions

Associated space launch

First generation satellite providing communications for the British armed forces.

SKYNET 1 was lifted into orbit during the mission ‘Thor Delta M | Skynet IA’, on board a Thor Delta M space rocket.

The launch took place on Nov. 22, 1969, 12:37 a.m. from Space Launch Complex 17A.

For more information about the launch, click the button.

Launch to space Thor Delta M | Skynet IA
Thor Delta M | Skynet IA

Agency: N/A

Status: Launch Successful

Launch date: Nov. 22, 1969, 12:37 a.m. UTC

Rocket: Thor Delta M

Launch pad: Space Launch Complex 17A

Location: Cape Canaveral SFS, FL, USA

...

Latest news about this satellite

There are no fresh news available about this satellite. Check back as we update our databases every day.


Newsletter sign-up

Weekly statistics, charts and insights to help you stay on top of the space industry.